Wind_Speed
12 14 15 16 17 18 19 20 23 26 27 30 26 25 18 14 21 22 19 19 23 27 28 30 29 25 20 20 16 11 9 11
15 17 17 17 18 20 22 23 23 27 31 33 37 28 30 27 25 21 16 20 29 32 31 31 27 22 18 19 13 8 8 10
18 19 19 17 18 19 21 22 28 30 34 38 37 31 28 25 27 22 18 24 32 34 35 32 27 20 17 18 13 8 7 12
21 21 21 18 18 18 18 22 29 34 37 39 38 36 36 28 31 26 24 28 34 37 36 32 26 21 25 19 12 7 9 13
23 23 23 21 19 19 20 24 31 35 40 40 41 42 35 33 35 32 27 31 39 40 37 31 26 23 24 17 12 9 11 12
25 26 26 23 21 21 21 23 28 34 38 39 46 45 37 42 40 39 34 33 41 42 38 32 27 23 22 18 13 10 8 10
29 28 28 24 22 21 22 22 25 28 31 37 41 48 48 47 43 47 37 37 43 44 38 33 29 27 23 17 14 12 7 6
31 29 27 24 22 21 21 21 21 21 26 32 39 47 48 45 45 47 39 39 45 45 40 33 29 26 22 18 16 12 7 5
31 30 27 23 20 19 20 21 21 21 26 33 40 55 57 46 47 46 41 39 44 45 40 34 31 26 20 20 17 11 9 5
33 31 26 19 17 17 20 19 22 21 29 35 50 47 56 52 55 50 42 42 44 46 43 38 33 27 23 21 17 13 11 8
35 30 22 17 15 17 18 17 19 20 25 32 33 38 58 58 53 47 42 43 45 46 46 42 37 30 24 21 18 14 13 10
35 26 20 17 16 17 15 17 15 15 12 30 33 36 48 44 41 41 39 42 45 48 45 43 39 33 27 21 18 15 13 10
33 26 22 19 20 22 19 17 14 13 11 28 34 46 39 40 38 39 41 46 47 46 45 46 38 32 28 20 17 17 15 13
33 26 22 20 20 22 20 17 17 18 20 31 38 40 42 45 42 43 44 46 46 48 48 48 39 35 31 28 22 19 21 18
34 27 22 21 23 23 21 19 20 23 25 37 38 40 37 41 43 44 45 48 49 49 50 51 46 37 33 23 14 10 21 20
32 26 23 23 27 26 23 25 25 30 31 33 40 40 42 42 42 44 47 50 51 51 49 49 46 42 37 33 24 15 12 11
34 27 25 27 30 28 26 27 26 27 30 36 43 42 44 45 45 46 48 52 53 52 52 49 44 42 40 38 27 15 16 13
34 29 27 30 29 29 28 28 29 30 28 35 42 45 47 48 49 50 46 50 54 53 53 48 43 42 40 36 35 27 17 12
36 31 31 31 31 29 26 24 25 28 34 37 35 44 44 54 55 52 50 49 52 52 51 48 43 42 41 38 33 29 19 14
39 33 33 32 30 28 25 23 21 20 25 32 36 45 39 54 58 55 53 52 51 49 47 49 47 44 43 40 34 32 26 19
Wind_Direction
223 216 216 214 213 214 212 218 225 217 211 196 195 188 226 230 216 205 191 177 177 171 170 169 171 167 161 159 156 146 140 154
230 224 222 222 222 223 220 218 220 221 211 208 195 220 217 219 205 207 200 182 175 169 167 168 171 169 155 156 158 160 150 166
234 232 228 228 232 230 229 226 218 218 218 214 217 216 195 181 191 206 200 182 174 170 169 171 175 170 165 164 164 158 163 181
236 231 225 222 230 229 234 238 225 223 217 214 211 208 194 195 202 203 196 183 176 172 172 178 183 175 173 169 167 168 173 171
239 236 226 226 232 234 242 242 229 227 223 214 208 197 207 202 195 198 197 188 178 174 177 182 183 181 175 173 171 161 156 166
241 237 230 230 232 241 253 245 233 226 229 223 207 203 200 195 188 195 199 192 182 177 179 182 184 183 181 172 170 165 158 171
240 235 232 231 239 250 253 237 223 222 221 224 221 214 201 198 196 193 197 193 187 180 180 183 184 179 173 182 179 182 166 169
240 237 233 234 248 255 240 222 213 216 222 224 220 217 196 196 197 195 198 193 188 184 181 183 181 183 180 187 188 183 181 169
238 237 230 237 249 242 224 223 223 231 243 235 212 202 200 199 194 199 196 193 189 185 183 183 186 189 189 186 184 187 187 175
233 229 227 236 245 232 219 224 225 243 251 221 211 208 206 197 197 198 196 193 191 187 185 186 189 192 189 182 187 192 193 196
227 222 224 238 235 219 221 223 233 259 259 223 214 198 192 196 196 192 195 194 190 188 189 189 190 193 192 193 195 198 198 205
221 219 222 229 222 214 215 216 233 253 243 209 202 179 184 189 197 190 196 196 191 190 189 190 193 195 194 189 190 195 203 210
215 215 222 222 211 204 206 199 221 211 210 189 186 194 196 203 200 198 198 196 193 190 191 191 189 192 193 181 184 198 208 214
212 217 227 223 212 205 202 194 198 199 180 182 189 191 200 202 209 204 203 197 194 193 194 189 189 193 194 186 179 198 207 214
213 218 225 220 208 204 202 193 191 197 195 186 197 200 202 206 206 206 204 202 198 196 197 196 192 193 200 190 173 199 208 217
215 217 222 218 209 204 203 190 192 197 203 196 195 202 202 212 217 213 208 206 203 200 200 200 200 195 197 206 203 202 186 202
212 216 219 214 207 205 202 196 198 204 204 205 200 200 205 208 213 215 212 210 207 205 202 203 206 204 200 202 202 197 203 191
210 214 216 210 203 203 204 204 205 206 204 209 209 212 211 212 216 220 215 215 211 209 208 207 208 209 206 205 208 197 190 208
210 212 213 207 203 203 204 208 208 210 216 215 210 218 217 220 216 217 216 214 215 214 212 211 211 213 212 206 204 205 205 222
210 210 212 204 205 202 203 202 209 219 212 221 226 226 223 212 215 215 218 217 215 216 215 214 214 213 212 213 209 217 217 221
Height
1467 1468 1470 1471 1473 1476 1479 1482 1484 1487 1490 1493 1483 1498 1498 1502 1514 1517 1511 1514 1516 1517 1519 1522 1524 1528 1531 1535 1538 1538 1540 1541
1463 1465 1467 1468 1470 1472 1476 1478 1481 1483 1486 1488 1488 1491 1497 1499 1513 1516 1514 1513 1516 1518 1521 1524 1526 1528 1533 1535 1538 1540 1539 1542
1460 1462 1464 1465 1466 1468 1471 1474 1476 1479 1482 1486 1489 1491 1495 1499 1507 1510 1514 1514 1515 1519 1522 1525 1527 1529 1533 1536 1539 1540 1542 1544
1457 1458 1460 1461 1463 1464 1466 1469 1471 1473 1475 1479 1483 1488 1491 1497 1501 1507 1513 1514 1515 1519 1522 1525 1528 1530 1534 1536 1540 1542 1542 1545
1453 1454 1456 1457 1458 1459 1461 1462 1464 1466 1468 1472 1478 1483 1488 1493 1498 1503 1510 1512 1515 1518 1522 1524 1529 1531 1534 1537 1541 1543 1544 1546
1450 1450 1451 1453 1454 1454 1454 1454 1456 1459 1462 1467 1470 1476 1482 1488 1493 1498 1505 1509 1515 1516 1520 1524 1528 1531 1535 1537 1541 1544 1546 1548
1445 1445 1447 1449 1448 1449 1448 1448 1450 1453 1457 1461 1465 1470 1474 1482 1487 1493 1500 1506 1513 1516 1520 1523 1528 1532 1534 1537 1541 1545 1547 1549
1441 1440 1442 1444 1444 1443 1443 1443 1446 1449 1453 1456 1460 1464 1471 1477 1482 1488 1497 1504 1511 1516 1519 1523 1528 1532 1534 1538 1541 1544 1547 1549
1434 1435 1438 1440 1440 1440 1439 1440 1442 1445 1446 1448 1453 1455 1463 1472 1478 1484 1494 1502 1509 1515 1520 1524 1529 1531 1535 1539 1541 1544 1548 1549
1430 1432 1434 1437 1436 1436 1437 1438 1440 1440 1440 1441 1444 1448 1457 1467 1473 1482 1492 1499 1506 1513 1518 1522 1528 1529 1534 1538 1542 1544 1547 1550
1426 1428 1429 1431 1432 1432 1433 1435 1436 1435 1434 1431 1438 1441 1450 1461 1470 1481 1490 1497 1503 1511 1516 1521 1525 1528 1533 1537 1541 1544 1547 1550
1422 1424 1425 1427 1428 1429 1430 1432 1434 1433 1430 1430 1437 1443 1454 1462 1471 1480 1487 1495 1501 1508 1514 1520 1523 1528 1532 1537 1541 1544 1547 1550
1416 1417 1419 1422 1423 1425 1427 1428 1431 1432 1432 1435 1440 1446 1454 1461 1470 1478 1485 1492 1498 1506 1512 1517 1521 1527 1532 1537 1540 1543 1546 1548
1410 1412 1415 1418 1420 1422 1424 1427 1430 1433 1435 1437 1443 1449 1454 1460 1467 1475 1483 1489 1496 1501 1508 1512 1519 1523 1527 1533 1537 1542 1543 1546
1404 1406 1410 1415 1418 1420 1422 1426 1430 1434 1437 1439 1443 1448 1454 1459 1466 1474 1480 1487 1492 1498 1504 1508 1513 1520 1525 1528 1534 1536 1538 1542
1400 1402 1406 1410 1414 1417 1419 1421 1426 1430 1435 1440 1444 1448 1452 1458 1464 1472 1477 1483 1489 1494 1501 1505 1510 1515 1521 1527 1529 1532 1534 1538
1395 1399 1402 1406 1410 1415 1418 1421 1424 1429 1434 1439 1444 1448 1451 1457 1462 1467 1473 1480 1485 1490 1497 1502 1507 1512 1516 1522 1526 1530 1533 1534
1391 1394 1398 1402 1407 1411 1415 1418 1422 1427 1430 1435 1440 1444 1448 1453 1458 1462 1469 1475 1480 1487 1494 1498 1503 1509 1514 1518 1522 1526 1530 1533
1388 1390 1393 1397 1403 1407 1411 1414 1418 1423 1427 1430 1433 1437 1439 1443 1451 1457 1463 1469 1475 1484 1490 1496 1500 1505 1511 1515 1520 1524 1526 1532
1385 1385 1389 1393 1399 1403 1408 1412 1415 1418 1422 1425 1428 1431 1433 1431 1441 1449 1457 1463 1471 1478 1485 1491 1495 1499 1505 1510 1514 1520 1523 1528